Home > Weather > Rhodes > Past weeks

Flag for Greece Weather for the Past 2 Weeks in Rhodes, Rhodes, Greece

Now
66 °F

Light rain. Partly sunny.


Feels Like: 66 °F
Forecast: 61 / 66 °F
Wind: 13 mph from West

Location: Rhodes Airport

Current Time: May 3, 2016 at 11:58:12 AM

Latest Report: May 3, 2016 at 10:50 AM


Visibility: N/A

Pressure: 29.80 "Hg

Humidity: 78%

Dew Point: 59 °F

Location of RhodesLocation

Historic Weather in Rhodes — Graph

°F

Rhodes Temperature Yesterday

Maximum temperature yesterday: 72 °F (at 7:50 PM)
Minimum temperature yesterday: 63 °F (at 12:50 AM)
Average temperature yesterday: 67 °F

High & Low Weather Summary for the Past Weeks

 TemperatureHumidityPressure
High81 °F (Apr 20, 12:50 PM)88% (Apr 26, 2:50 AM)30.07 "Hg (Apr 26, 2:50 AM)
Low59 °F (Apr 20, 4:50 AM)37% (Apr 20, 1:50 PM)29.62 "Hg (Apr 25, 5:20 AM)
Average68 °F62%29.88 "Hg
* Reported Apr 18 10:20 AM — May 3 10:20 AM, Rhodes, Weather by CustomWeather, © 2016

Note: Actual official high and low records may vary slightly from our data, if they occured in-between our weather recording intervals... More about our weather records

Advertising

Rhodes Weather History for the Previous 24 Hours

Scroll right to see more
 ConditionsComfort  
Time TempWeatherWind HumidityBarometerVisibility
10:20 AM
Tue, May 3
68 °FScattered clouds.9 mph78%29.80 "HgN/A
9:50 AM68 °FScattered clouds.9 mph78%29.80 "HgN/A
8:50 AM68 °FScattered clouds.9 mph78%29.80 "HgN/A
8:20 AM66 °FScattered clouds.6 mph83%29.80 "HgN/A
7:50 AM66 °FScattered clouds.5 mph83%29.80 "HgN/A
7:20 AM68 °FScattered clouds.5 mph78%29.80 "HgN/A
6:50 AM68 °FPassing clouds.5 mph78%29.80 "HgN/A
6:20 AM68 °FPassing clouds.5 mph78%29.80 "HgN/A
5:50 AM66 °FPassing clouds.6 mph83%29.80 "HgN/A
5:20 AM63 °FPassing clouds.7 mph83%29.80 "HgN/A
4:50 AM63 °FPassing clouds.1 mph83%29.80 "HgN/A
3:50 AM63 °FPassing clouds.No wind83%29.80 "HgN/A
3:20 AM63 °FPassing clouds.1 mph83%29.80 "HgN/A
2:50 AM64 °FPassing clouds.1 mph78%29.80 "HgN/A
2:20 AM64 °FPassing clouds.2 mph78%29.80 "HgN/A
1:50 AM64 °FPassing clouds.2 mph78%29.80 "HgN/A
12:50 AM64 °FPassing clouds.2 mph78%29.80 "HgN/A
12:20 AM64 °FPassing clouds.5 mph78%29.80 "HgN/A
11:50 PM
Mon, May 2
66 °FPassing clouds.5 mph73%29.80 "HgN/A
11:20 PM68 °FPassing clouds.5 mph60%29.80 "HgN/A
10:50 PM70 °FPassing clouds.5 mph50%29.80 "HgN/A
10:20 PM70 °FPassing clouds.6 mph46%29.80 "HgN/A
9:50 PM70 °FPassing clouds.2 mph46%29.80 "HgN/A
9:20 PM72 °FPassing clouds.3 mph41%29.80 "HgN/A
8:50 PM72 °FScattered clouds.6 mph41%29.80 "HgN/A
8:20 PM72 °FScattered clouds.6 mph47%29.80 "HgN/A
7:50 PM72 °FScattered clouds.7 mph47%29.80 "HgN/A
7:20 PM70 °FScattered clouds.6 mph57%29.80 "HgN/A
6:50 PM70 °FScattered clouds.5 mph57%29.80 "HgN/A
6:20 PM68 °FScattered clouds.2 mph73%29.83 "HgN/A
5:50 PM68 °FScattered clouds.3 mph73%29.83 "HgN/A
5:20 PM68 °FPassing clouds.2 mph73%29.86 "HgN/A
4:50 PM68 °FPassing clouds.2 mph73%29.86 "HgN/A
4:20 PM66 °FPassing clouds.5 mph78%29.86 "HgN/A
3:50 PM66 °FPassing clouds.6 mph78%29.86 "HgN/A
3:20 PM68 °FPassing clouds.9 mph78%29.89 "HgN/A
2:50 PM68 °FPassing clouds.12 mph78%29.89 "HgN/A
2:20 PM68 °FPassing clouds.16 mph78%29.89 "HgN/A
1:50 PM68 °FPassing clouds.15 mph78%29.89 "HgN/A
1:20 PM68 °FPassing clouds.14 mph78%29.89 "HgN/A
12:50 PM68 °FPassing clouds.14 mph78%29.89 "HgN/A
12:20 PM68 °FPassing clouds.12 mph78%29.89 "HgN/A
11:50 AM68 °FPassing clouds.12 mph78%29.89 "HgN/A
11:20 AM68 °FPassing clouds.14 mph78%29.86 "HgN/A
Weather by CustomWeather, © 2016

See weather overviewHow to use our weather pages